Wind_Speed
16 14 13 12 11 12 13 12 5 2 2 4 5 7 14 21 24 26 27 30 31 32 33 34 34 32 31 33 36 37 37 37 35 34 34 33 32 32
14 15 14 13 12 12 14 15 15 12 3 6 8 13 13 14 14 15 21 24 27 28 27 27 31 33 34 32 32 34 35 36 35 33 33 34 34 33
15 15 16 15 15 14 13 12 14 15 10 14 14 16 16 13 16 17 19 18 21 26 30 31 33 35 34 30 30 31 31 32 34 32 30 31 31 32
16 16 18 17 17 16 15 15 16 17 16 15 19 17 13 13 14 16 19 21 21 19 21 25 24 23 28 29 28 27 29 31 33 32 30 30 31 31
15 17 18 15 16 16 16 17 18 18 18 19 22 22 22 21 19 20 19 20 21 21 22 24 27 28 26 24 25 25 27 29 30 33 33 32 32 32
12 13 14 15 15 16 16 16 16 17 18 19 22 23 22 21 21 21 23 23 23 23 24 24 24 23 23 23 23 24 25 27 30 31 32 34 35 34
3 5 6 7 8 9 11 14 14 14 16 18 20 19 21 22 22 21 20 25 28 26 26 26 24 23 23 25 25 27 27 28 27 25 27 32 35 36
7 8 9 10 12 12 13 14 14 13 13 13 15 16 21 22 23 23 25 22 8 20 17 22 22 23 23 24 22 23 23 23 22 24 25 27 30 34
7 9 11 11 12 14 14 13 14 15 14 15 16 18 20 21 20 21 22 22 18 25 22 25 25 26 27 27 26 25 26 28 27 27 27 25 26 28
7 10 11 10 10 12 13 12 12 11 11 11 16 19 20 20 20 20 22 23 26 26 20 14 23 27 29 31 32 32 32 31 31 33 32 30 28 27
7 7 7 6 3 7 7 9 12 12 13 15 15 16 16 18 20 21 19 16 14 18 20 16 16 24 30 33 34 34 34 33 34 32 30 29 29 28
8 7 7 6 9 11 13 14 17 19 20 22 22 22 21 22 23 22 24 19 16 12 15 15 21 16 10 21 25 22 22 21 22 20 21 25 26 28
11 13 13 14 16 17 16 16 17 18 20 21 23 24 25 24 23 23 26 27 21 21 24 21 23 21 17 21 26 28 27 28 27 28 23 19 20 24
14 15 16 15 17 17 15 12 12 13 13 14 16 18 20 21 19 19 19 21 25 28 28 26 20 21 19 22 24 24 26 25 25 28 27 25 21 20
13 12 12 12 11 9 8 8 9 11 12 11 13 15 17 19 19 20 20 21 24 26 27 27 29 30 28 28 28 26 23 23 22 26 28 27 25 22
12 11 11 12 13 12 12 13 12 13 13 14 14 17 18 19 20 19 21 23 24 27 26 27 28 29 28 29 29 29 27 19 24 23 24 25 27 27
10 13 17 18 18 19 19 19 18 19 20 19 19 20 20 20 22 23 22 22 20 20 25 31 28 26 27 29 28 28 27 25 31 34 29 29 31 33
14 15 16 16 17 17 18 18 20 21 22 21 21 20 20 21 22 23 20 19 19 21 23 23 25 22 23 25 27 28 29 25 27 33 32 25 27 34
14 12 12 14 15 16 18 17 19 20 18 20 21 21 21 21 22 22 22 21 20 20 22 24 23 20 10 12 23 24 27 24 27 28 30 28 27 30
11 12 11 12 13 16 17 19 20 21 22 21 21 22 22 20 20 19 20 20 21 23 24 23 20 21 17 15 15 25 23 26 27 25 24 27 31 33
8 8 9 11 13 15 17 19 20 22 23 23 21 20 21 21 20 19 21 23 24 20 20 22 23 29 28 27 14 21 26 26 27 30 22 21 18 16
5 8 7 9 11 13 16 19 21 22 23 25 24 23 22 21 19 21 21 21 21 21 23 26 27 29 21 18 19 24 24 27 22 21 28 31 17 4
5 6 7 8 9 12 14 17 20 21 21 22 23 21 22 22 22 21 21 22 22 23 23 26 26 23 22 20 23 19 14 15 15 18 21 20 23 30
Wind_Direction
252 261 264 261 260 261 252 246 199 274 297 281 274 327 264 243 250 253 253 254 256 254 254 252 251 254 258 262 264 266 267 266 263 262 261 262 263 267
248 256 257 264 274 273 263 255 248 238 237 238 278 300 304 251 273 255 251 258 259 257 255 257 259 258 260 261 263 266 268 268 267 265 265 263 263 264
251 253 259 264 270 267 278 273 258 247 233 272 282 301 300 281 271 268 266 271 272 253 248 254 261 263 263 262 263 265 268 269 268 267 266 267 267 266
259 261 262 266 272 265 265 266 268 261 244 258 285 291 286 295 296 284 276 273 287 273 258 257 268 269 262 265 266 267 268 267 266 266 266 265 266 265
263 265 269 270 270 271 273 272 270 269 263 261 272 279 284 292 292 290 285 282 289 286 281 279 279 273 266 267 270 273 272 268 266 266 265 265 265 265
267 269 272 274 276 280 278 277 280 276 274 271 275 279 284 291 293 291 288 286 289 291 291 291 289 285 268 265 267 272 274 274 270 265 264 263 262 263
312 297 291 291 291 294 295 295 291 287 281 278 279 280 281 285 285 293 284 292 292 293 295 286 288 279 273 267 266 273 278 277 275 272 271 267 261 258
298 296 296 298 301 302 299 297 300 299 298 284 275 265 281 288 294 291 292 292 290 293 285 291 295 286 277 273 272 278 283 282 273 268 282 278 267 259
301 294 292 292 297 297 294 292 291 291 291 292 286 285 289 296 299 294 292 288 274 293 295 288 288 277 276 279 276 278 283 282 278 276 285 281 273 263
308 293 289 297 298 303 305 300 296 295 299 301 294 289 286 289 289 292 292 288 288 291 293 272 283 281 286 281 280 281 280 276 274 275 276 275 273 263
353 353 329 287 307 301 321 319 308 299 298 300 296 292 294 292 286 284 275 273 282 279 286 276 283 286 286 285 285 283 282 277 272 273 268 269 265 263
342 343 339 330 307 315 322 321 314 308 309 301 296 291 289 288 278 277 273 254 254 277 279 254 281 288 291 286 281 282 280 280 273 274 270 265 258 256
328 321 317 309 302 300 298 296 298 302 298 296 292 288 287 288 289 285 273 269 254 255 268 269 277 281 265 280 278 274 276 275 274 278 276 274 262 254
329 327 325 325 316 309 307 311 311 310 306 300 300 298 294 292 294 295 292 283 279 274 281 277 267 270 273 279 279 281 279 276 272 271 273 267 257 255
0 9 9 9 15 23 23 13 1 359 351 333 318 314 311 308 307 298 294 292 289 287 284 280 278 278 273 272 273 273 272 276 270 270 266 262 259 257
8 9 2 17 26 23 18 13 14 2 357 349 332 328 326 322 318 311 301 295 294 290 286 284 281 278 267 264 268 268 262 254 272 268 264 266 267 260
22 26 24 22 20 15 15 17 16 14 10 359 349 342 336 330 322 320 312 302 284 282 287 293 293 287 281 267 264 265 267 256 262 270 265 265 264 264
50 38 28 21 18 10 7 9 13 11 9 5 3 358 346 338 332 325 314 298 286 286 284 286 290 291 285 274 261 262 263 258 257 264 262 255 262 268
50 39 31 25 15 13 12 8 359 3 6 7 3 357 350 344 340 333 327 325 311 300 296 294 283 275 276 274 274 266 258 257 257 254 255 245 251 263
51 55 54 45 31 29 23 18 15 13 10 5 5 2 358 345 337 335 331 325 319 315 308 299 290 282 272 272 276 275 266 259 251 249 251 253 262 272
54 41 37 31 27 24 20 17 15 12 10 7 3 3 2 356 344 335 326 326 326 318 316 313 313 310 307 285 263 267 271 268 259 255 259 248 245 260
15 24 26 14 3 3 7 8 6 6 6 6 2 0 356 352 338 336 334 326 323 318 313 312 316 320 301 289 268 267 270 280 284 281 264 253 247 236
316 320 328 337 339 340 341 351 357 357 357 357 356 355 357 349 349 340 333 328 323 321 323 323 328 323 315 314 304 294 270 291 311 314 303 290 272 268
Height
818 819 820 821 821 822 822 823 826 828 825 819 819 818 817 818 819 819 820 820 821 822 823 824 825 826 827 827 829 830 831 832 833 835 836 838 840 841
815 817 817 818 819 819 820 821 822 823 824 819 817 816 815 814 815 815 816 816 816 816 817 818 819 819 820 820 821 822 823 824 826 826 828 830 831 833
812 813 814 815 815 816 817 816 817 818 819 815 814 813 812 811 811 812 812 811 810 810 811 812 813 813 813 813 814 814 815 816 818 819 820 822 824 825
808 810 810 810 810 812 813 812 813 813 814 812 811 810 808 808 808 807 807 806 805 805 805 806 805 805 806 806 806 806 807 808 810 811 812 814 816 817
804 805 805 806 806 807 808 808 808 808 808 807 806 806 804 804 803 802 801 801 800 799 799 799 799 798 798 799 799 799 800 800 802 803 804 806 808 810
801 802 803 803 803 803 803 804 803 802 802 801 801 801 800 798 797 796 794 794 793 793 793 792 791 790 791 791 792 792 793 793 793 794 795 797 799 801
801 800 801 801 800 800 799 798 798 798 798 797 796 795 795 794 792 791 789 789 787 787 786 785 784 784 784 785 785 786 785 785 785 785 786 787 789 791
799 800 799 799 798 797 796 795 795 794 793 793 792 792 790 789 788 787 785 784 781 781 779 778 778 777 777 778 779 779 778 778 778 778 779 778 779 781
798 798 797 796 795 794 792 792 791 790 789 789 788 787 786 785 784 782 781 779 777 776 776 771 771 770 772 772 773 773 772 772 771 771 770 770 771 771
795 795 794 793 791 790 788 787 786 785 784 783 782 781 780 780 778 776 776 775 772 770 771 766 764 762 763 763 764 764 763 763 763 763 763 763 763 764
793 792 791 789 789 787 785 784 782 781 780 779 777 776 775 774 774 771 770 770 767 765 764 762 759 757 755 753 752 753 753 752 752 753 753 754 755 756
793 792 790 789 787 786 784 782 780 778 775 773 771 770 769 767 768 766 765 764 763 760 759 759 754 755 749 745 744 744 744 744 744 743 745 746 747 747
790 788 787 785 783 782 781 779 777 775 771 769 766 764 763 760 759 759 758 757 757 753 754 754 751 749 748 742 739 739 740 739 738 738 738 739 739 739
786 784 782 779 777 774 773 772 771 769 766 765 762 759 757 755 753 752 750 749 749 748 748 748 745 744 742 738 734 732 731 731 731 730 731 731 732 733
784 782 779 777 775 772 771 770 768 766 764 761 759 757 755 752 749 747 745 744 742 741 740 739 738 737 736 732 727 726 725 722 724 724 723 724 724 725
784 781 778 776 774 773 769 767 765 763 761 759 757 754 751 748 745 743 741 738 736 733 732 731 730 729 726 724 722 717 718 716 715 716 716 716 717 717
782 781 778 775 773 772 769 767 765 763 760 758 754 751 748 745 742 739 737 735 732 729 725 722 721 721 719 717 712 710 708 707 707 708 709 708 708 709
782 783 783 780 778 775 771 769 766 763 761 758 754 752 748 745 741 737 734 731 728 725 721 719 716 712 709 705 705 702 700 699 700 699 699 701 697 696
785 785 785 782 782 778 775 772 769 766 763 759 755 752 749 746 742 737 733 729 725 721 717 714 711 708 703 697 696 695 693 691 691 690 689 689 688 686
788 786 785 785 784 780 777 774 771 767 763 759 756 753 750 747 743 739 735 731 726 720 714 709 706 702 698 693 689 686 686 684 682 681 680 679 678 678
788 787 786 785 784 781 778 775 771 768 764 760 757 754 751 747 743 739 735 730 724 720 713 707 702 699 693 687 682 677 675 675 675 674 673 673 673 671
788 787 786 785 783 781 778 775 772 768 764 760 756 754 750 748 744 739 734 729 724 719 713 706 699 694 686 683 676 672 669 666 666 665 666 667 668 664
787 786 785 783 782 780 778 775 772 768 764 760 756 753 750 746 742 738 733 729 724 716 710 703 696 692 686 680 675 668 663 663 659 658 657 658 657 656